Year,Month,Day,Hour,Minute,Value (Times are PST for temperature in C)
2016,04,02,00,00,8.80
2016,04,02,00,07,8.70
2016,04,02,00,08,8.70
2016,04,02,00,09,8.70
2016,04,02,00,10,8.70
2016,04,02,00,11,8.80
2016,04,02,00,12,8.80
2016,04,02,00,13,8.80
2016,04,02,00,14,8.80
2016,04,02,00,15,8.80
2016,04,02,00,16,8.80
2016,04,02,00,17,8.80
2016,04,02,00,18,8.80
2016,04,02,00,19,8.90
2016,04,02,00,20,9.00
2016,04,02,00,21,9.00
2016,04,02,00,22,9.00
2016,04,02,00,23,9.00
2016,04,02,00,24,9.00
2016,04,02,00,25,9.00
2016,04,02,00,26,9.10
2016,04,02,00,27,9.10
2016,04,02,00,28,9.10
2016,04,02,00,29,9.20
2016,04,02,00,30,9.20
2016,04,02,00,31,9.30
2016,04,02,00,32,9.40
2016,04,02,00,33,9.40
2016,04,02,00,34,9.40
2016,04,02,00,35,9.50
2016,04,02,00,36,9.50
2016,04,02,00,37,9.50
2016,04,02,00,38,9.50
2016,04,02,00,39,9.50
2016,04,02,00,40,9.50
2016,04,02,00,41,9.50
2016,04,02,00,42,9.50
2016,04,02,00,43,9.60
2016,04,02,00,44,9.60
2016,04,02,00,45,9.60
2016,04,02,00,46,9.60
2016,04,02,00,47,9.70
2016,04,02,00,48,9.70
2016,04,02,00,49,9.70
2016,04,02,00,50,9.70
2016,04,02,00,51,9.70
2016,04,02,00,52,9.60
2016,04,02,00,53,9.60
2016,04,02,00,54,9.50
2016,04,02,00,55,9.50
2016,04,02,00,56,9.40
2016,04,02,00,57,9.30
2016,04,02,00,58,9.30
2016,04,02,00,59,9.30
2016,04,02,01,00,9.30
2016,04,02,01,01,9.30
2016,04,02,01,02,9.30
2016,04,02,01,03,9.20
2016,04,02,01,04,9.20
2016,04,02,01,05,9.20
2016,04,02,01,06,9.10
2016,04,02,01,07,9.10
2016,04,02,01,08,9.10
2016,04,02,01,09,9.00
2016,04,02,01,10,9.00
2016,04,02,01,11,9.00
2016,04,02,01,12,8.90
2016,04,02,01,13,8.90
2016,04,02,01,14,8.90
2016,04,02,01,15,8.90
2016,04,02,01,16,8.90
2016,04,02,01,17,8.90
2016,04,02,01,18,8.90
2016,04,02,01,19,8.90
2016,04,02,01,20,8.90
2016,04,02,01,21,8.80
2016,04,02,01,22,8.80
2016,04,02,01,23,8.80
2016,04,02,01,24,8.80
2016,04,02,01,25,8.80
2016,04,02,01,26,8.80
2016,04,02,01,27,8.80
2016,04,02,01,28,8.80
2016,04,02,01,29,8.70
2016,04,02,01,30,8.70
2016,04,02,01,31,8.70
2016,04,02,01,32,8.60
2016,04,02,01,33,8.60
2016,04,02,01,34,8.60
2016,04,02,01,35,8.60
2016,04,02,01,36,8.50
2016,04,02,01,37,8.50
2016,04,02,01,38,8.40
2016,04,02,01,39,8.40
2016,04,02,01,40,8.40
2016,04,02,01,41,8.50
2016,04,02,01,42,8.50
2016,04,02,01,43,8.50
2016,04,02,01,44,8.50
2016,04,02,01,45,8.40
2016,04,02,01,46,8.40
2016,04,02,01,47,8.40
2016,04,02,01,48,8.40
2016,04,02,01,49,8.40
2016,04,02,01,50,8.40
2016,04,02,01,51,8.40
2016,04,02,01,52,8.50
2016,04,02,01,53,8.50
2016,04,02,01,54,8.50
2016,04,02,01,55,8.50
2016,04,02,01,56,8.50
2016,04,02,01,57,8.60
2016,04,02,01,58,8.60
2016,04,02,01,59,8.70
2016,04,02,02,00,8.70
2016,04,02,02,01,8.70
2016,04,02,02,02,8.70
2016,04,02,02,03,8.70
2016,04,02,02,04,8.70
2016,04,02,02,05,8.70
2016,04,02,02,06,8.70
2016,04,02,02,07,8.80
2016,04,02,02,08,8.80
2016,04,02,02,09,8.70
2016,04,02,02,10,8.70
2016,04,02,02,11,8.80
2016,04,02,02,12,8.80
2016,04,02,02,13,8.80
2016,04,02,02,14,8.80
2016,04,02,02,15,8.80
2016,04,02,02,16,8.70
2016,04,02,02,17,8.70
2016,04,02,02,18,8.70
2016,04,02,02,19,8.70
2016,04,02,02,20,8.60
2016,04,02,02,21,8.60
2016,04,02,02,22,8.50
2016,04,02,02,23,8.50
2016,04,02,02,24,8.50
2016,04,02,02,25,8.50
2016,04,02,02,26,8.40
2016,04,02,02,27,8.40
2016,04,02,02,28,8.40
2016,04,02,02,29,8.40
2016,04,02,02,30,8.40
2016,04,02,02,31,8.40
2016,04,02,02,32,8.40
2016,04,02,02,33,8.30
2016,04,02,02,34,8.30
2016,04,02,02,35,8.30
2016,04,02,02,36,8.30
2016,04,02,02,37,8.30
2016,04,02,02,38,8.30
2016,04,02,02,39,8.30
2016,04,02,02,40,8.30
2016,04,02,02,41,8.30
2016,04,02,02,42,8.20
2016,04,02,02,43,8.20
2016,04,02,02,44,8.20
2016,04,02,02,45,8.20
2016,04,02,02,46,8.20
2016,04,02,02,47,8.20
2016,04,02,02,48,8.20
2016,04,02,02,49,8.20
2016,04,02,02,50,8.20
2016,04,02,02,51,8.20
2016,04,02,02,52,8.10
2016,04,02,02,53,8.10
2016,04,02,02,54,8.10
2016,04,02,02,55,8.10
2016,04,02,02,56,8.10
2016,04,02,02,57,8.10
2016,04,02,02,58,8.10
2016,04,02,02,59,8.10
2016,04,02,03,00,8.10
2016,04,02,03,01,8.10
2016,04,02,03,02,8.10
2016,04,02,03,03,8.10
2016,04,02,03,04,8.10
2016,04,02,03,05,8.10
2016,04,02,03,06,8.10
2016,04,02,03,07,8.10
2016,04,02,03,08,8.10
2016,04,02,03,09,8.10
2016,04,02,03,10,8.00
2016,04,02,03,11,8.00
2016,04,02,03,12,8.00
2016,04,02,03,13,8.00
2016,04,02,03,14,8.00
2016,04,02,03,15,8.00
2016,04,02,03,16,8.00
2016,04,02,03,17,8.00
2016,04,02,03,18,7.90
2016,04,02,03,19,7.90
2016,04,02,03,20,7.90
2016,04,02,03,21,7.90
2016,04,02,03,22,7.90
2016,04,02,03,23,7.90
2016,04,02,03,24,7.90
2016,04,02,03,25,7.90
2016,04,02,03,26,8.00
2016,04,02,03,27,7.90
2016,04,02,03,28,7.90
2016,04,02,03,29,7.90
2016,04,02,03,30,8.00
2016,04,02,03,31,8.00
2016,04,02,03,32,7.90
2016,04,02,03,33,7.90
2016,04,02,03,34,7.90
2016,04,02,03,35,7.90
2016,04,02,03,36,7.90
2016,04,02,03,37,7.90
2016,04,02,03,38,7.90
2016,04,02,03,39,7.90
2016,04,02,03,40,7.90
2016,04,02,03,41,7.90
2016,04,02,03,42,7.90
2016,04,02,03,43,7.90
2016,04,02,03,44,7.90
2016,04,02,03,45,7.90
2016,04,02,03,46,7.90
2016,04,02,03,47,8.00
2016,04,02,03,48,8.00
2016,04,02,03,49,8.00
2016,04,02,03,50,8.10
2016,04,02,03,51,8.00
2016,04,02,03,52,8.00
2016,04,02,03,53,8.00
2016,04,02,03,54,8.00
2016,04,02,03,55,8.00
2016,04,02,03,56,8.00
2016,04,02,03,57,8.00
2016,04,02,03,58,7.90
2016,04,02,03,59,7.90
2016,04,02,04,00,7.90
2016,04,02,04,01,7.90
2016,04,02,04,02,7.90
2016,04,02,04,03,7.90
2016,04,02,04,04,7.90
2016,04,02,04,05,7.90
2016,04,02,04,06,7.80
2016,04,02,04,07,7.80
2016,04,02,04,08,7.80
2016,04,02,04,09,7.80
2016,04,02,04,10,7.80
2016,04,02,04,11,7.80
2016,04,02,04,12,7.80
2016,04,02,04,13,7.80
2016,04,02,04,14,7.70
2016,04,02,04,15,7.70
2016,04,02,04,16,7.70
2016,04,02,04,17,7.70
2016,04,02,04,18,7.70
2016,04,02,04,19,7.70
2016,04,02,04,20,7.70
2016,04,02,04,21,7.70
2016,04,02,04,22,7.70
2016,04,02,04,23,7.70
2016,04,02,04,24,7.70
2016,04,02,04,25,7.70
2016,04,02,04,26,7.70
2016,04,02,04,27,7.80
2016,04,02,04,28,7.80
2016,04,02,04,29,7.80
2016,04,02,04,30,7.80
2016,04,02,04,31,7.80
2016,04,02,04,32,7.80
2016,04,02,04,33,7.80
2016,04,02,04,34,7.80
2016,04,02,04,35,7.80
2016,04,02,04,36,7.80
2016,04,02,04,37,7.80
2016,04,02,04,38,7.80
2016,04,02,04,39,7.80
2016,04,02,04,40,7.90
2016,04,02,04,41,7.90
2016,04,02,04,42,7.90
2016,04,02,04,43,7.80
2016,04,02,04,44,7.80
2016,04,02,04,45,7.80
2016,04,02,04,46,7.80
2016,04,02,04,47,7.80
2016,04,02,04,48,7.80
2016,04,02,04,49,7.80
2016,04,02,04,50,7.80
2016,04,02,04,51,7.80
2016,04,02,04,52,7.80
2016,04,02,04,53,7.80
2016,04,02,04,54,7.80
2016,04,02,04,55,7.70
2016,04,02,04,56,7.70
2016,04,02,04,57,7.70
2016,04,02,04,58,7.70
2016,04,02,04,59,7.60
2016,04,02,05,00,7.60
2016,04,02,05,01,7.60
2016,04,02,05,02,7.60
2016,04,02,05,03,7.60
2016,04,02,05,04,7.60
2016,04,02,05,05,7.60
2016,04,02,05,06,7.60
2016,04,02,05,07,7.60
2016,04,02,05,08,7.60
2016,04,02,05,09,7.60
2016,04,02,05,10,7.60
2016,04,02,05,11,7.60
2016,04,02,05,12,7.60
2016,04,02,05,13,7.60
2016,04,02,05,14,7.60
2016,04,02,05,15,7.60
2016,04,02,05,16,7.50
2016,04,02,05,17,7.50
2016,04,02,05,18,7.50
2016,04,02,05,19,7.40
2016,04,02,05,20,7.40
2016,04,02,05,21,7.40
2016,04,02,05,22,7.40
2016,04,02,05,23,7.40
2016,04,02,05,24,7.40
2016,04,02,05,25,7.40
2016,04,02,05,26,7.40
2016,04,02,05,27,7.40
2016,04,02,05,28,7.30
2016,04,02,05,29,7.30
2016,04,02,05,30,7.30
2016,04,02,05,31,7.30
2016,04,02,05,32,7.30
2016,04,02,05,33,7.30
2016,04,02,05,34,7.30
2016,04,02,05,35,7.30
2016,04,02,05,36,7.30
2016,04,02,05,37,7.40
2016,04,02,05,38,7.40
2016,04,02,05,39,7.40
2016,04,02,05,40,7.40
2016,04,02,05,41,7.40
2016,04,02,05,42,7.30
2016,04,02,05,43,7.30
2016,04,02,05,44,7.30
2016,04,02,05,45,7.40
2016,04,02,05,46,7.40
2016,04,02,05,47,7.40
2016,04,02,05,48,7.40
2016,04,02,05,49,7.40
2016,04,02,05,50,7.50
2016,04,02,05,51,7.50
2016,04,02,05,52,7.50
2016,04,02,05,53,7.50
2016,04,02,05,54,7.60
2016,04,02,05,55,7.50
2016,04,02,05,56,7.60
2016,04,02,05,57,7.60
2016,04,02,05,58,7.60
2016,04,02,05,59,7.60
2016,04,02,06,00,7.60
2016,04,02,06,01,7.60
2016,04,02,06,02,7.60
2016,04,02,06,03,7.60
2016,04,02,06,04,7.60
2016,04,02,06,05,7.60
2016,04,02,06,06,7.60
2016,04,02,06,07,7.50
2016,04,02,06,08,7.50
2016,04,02,06,09,7.50
2016,04,02,06,10,7.40
2016,04,02,06,11,7.40
2016,04,02,06,12,7.40
2016,04,02,06,13,7.40
2016,04,02,06,14,7.40
2016,04,02,06,15,7.40
2016,04,02,06,16,7.40
2016,04,02,06,17,7.40
2016,04,02,06,18,7.40
2016,04,02,06,19,7.30
2016,04,02,06,20,7.30
2016,04,02,06,21,7.30
2016,04,02,06,22,7.30
2016,04,02,06,23,7.20
2016,04,02,06,24,7.20
2016,04,02,06,25,7.30
2016,04,02,06,26,7.20
2016,04,02,06,27,7.20
2016,04,02,06,28,7.20
2016,04,02,06,29,7.20
2016,04,02,06,30,7.20
2016,04,02,06,31,7.20
2016,04,02,06,32,7.20
2016,04,02,06,33,7.20
2016,04,02,06,34,7.20
2016,04,02,06,35,7.20
2016,04,02,06,36,7.20
2016,04,02,06,37,7.20
2016,04,02,06,38,7.10
2016,04,02,06,39,7.10
2016,04,02,06,40,7.20
2016,04,02,06,41,7.20
2016,04,02,06,42,7.20
2016,04,02,06,43,7.20
2016,04,02,06,44,7.20
2016,04,02,06,45,7.20
2016,04,02,06,46,7.20
2016,04,02,06,47,7.20
2016,04,02,06,48,7.20
2016,04,02,06,49,7.10
2016,04,02,06,50,7.10
2016,04,02,06,51,7.10
2016,04,02,06,52,7.10
2016,04,02,06,53,7.00
2016,04,02,06,54,7.00
2016,04,02,06,55,7.00
2016,04,02,06,56,7.00
2016,04,02,06,57,6.90
2016,04,02,06,58,6.90
2016,04,02,06,59,6.90
2016,04,02,07,00,6.90
2016,04,02,07,01,6.90
2016,04,02,07,02,6.80
2016,04,02,07,03,6.80
2016,04,02,07,04,6.80
2016,04,02,07,05,6.80
2016,04,02,07,06,6.70
2016,04,02,07,07,6.70
2016,04,02,07,08,6.70
2016,04,02,07,09,6.70
2016,04,02,07,10,6.70
2016,04,02,07,11,6.70
2016,04,02,07,12,6.70
2016,04,02,07,13,6.70
2016,04,02,07,14,6.70
2016,04,02,07,15,6.70
2016,04,02,07,16,6.70
2016,04,02,07,17,6.70
2016,04,02,07,18,6.70
2016,04,02,07,19,6.70
2016,04,02,07,20,6.70
2016,04,02,07,21,6.70
2016,04,02,07,22,6.70
2016,04,02,07,23,6.70
2016,04,02,07,24,6.70
2016,04,02,07,25,6.70
2016,04,02,07,26,6.70
2016,04,02,07,27,6.70
2016,04,02,07,28,6.70
2016,04,02,07,29,6.70
2016,04,02,07,30,6.70
2016,04,02,07,31,6.70
2016,04,02,07,32,6.70
2016,04,02,07,33,6.70
2016,04,02,07,34,6.70
2016,04,02,07,35,6.80
2016,04,02,07,36,6.80
2016,04,02,07,37,6.80
2016,04,02,07,38,6.80
2016,04,02,07,39,6.80
2016,04,02,07,40,6.80
2016,04,02,07,41,6.80
2016,04,02,07,42,6.80
2016,04,02,07,43,6.80
2016,04,02,07,44,6.80
2016,04,02,07,45,6.80
2016,04,02,07,46,6.80
2016,04,02,07,47,6.80
2016,04,02,07,48,6.80
2016,04,02,07,49,6.80
2016,04,02,07,50,6.80
2016,04,02,07,51,6.80
2016,04,02,07,52,6.80
2016,04,02,07,53,6.80
2016,04,02,07,54,6.80
2016,04,02,07,55,6.80
2016,04,02,07,56,6.80
2016,04,02,07,57,6.80
2016,04,02,07,58,6.80
2016,04,02,07,59,6.80
2016,04,02,08,00,6.80
2016,04,02,08,01,6.80
2016,04,02,08,02,6.80
2016,04,02,08,03,6.80
2016,04,02,08,04,6.80
2016,04,02,08,05,6.90
2016,04,02,08,06,6.90
2016,04,02,08,07,6.90
2016,04,02,08,08,6.90
2016,04,02,08,09,7.00
2016,04,02,08,10,7.00
2016,04,02,08,11,7.00
2016,04,02,08,12,7.10
2016,04,02,08,13,7.10
2016,04,02,08,14,7.20
2016,04,02,08,15,7.20
2016,04,02,08,16,7.20
2016,04,02,08,17,7.30
2016,04,02,08,18,7.30
2016,04,02,08,19,7.30
2016,04,02,08,20,7.40
2016,04,02,08,21,7.40
2016,04,02,08,22,7.50
2016,04,02,08,23,7.50
2016,04,02,08,24,7.60
2016,04,02,08,25,7.60
2016,04,02,08,26,7.70
2016,04,02,08,27,7.70
2016,04,02,08,28,7.80
2016,04,02,08,29,7.90
2016,04,02,08,30,7.90
2016,04,02,08,31,8.00
2016,04,02,08,32,8.10
2016,04,02,08,33,8.10
2016,04,02,08,34,8.20
2016,04,02,08,35,8.20
2016,04,02,08,36,8.20
2016,04,02,08,37,8.30
2016,04,02,08,38,8.30
2016,04,02,08,39,8.40
2016,04,02,08,40,8.50
2016,04,02,08,41,8.60
2016,04,02,08,42,8.70
2016,04,02,08,43,8.90
2016,04,02,08,44,9.00
2016,04,02,08,45,9.10
2016,04,02,08,46,9.20
2016,04,02,08,47,9.30
2016,04,02,08,48,9.40
2016,04,02,08,49,9.50
2016,04,02,08,50,9.50
2016,04,02,08,51,9.60
2016,04,02,08,52,9.70
2016,04,02,08,53,9.80
2016,04,02,08,54,9.90
2016,04,02,08,55,9.90
2016,04,02,08,56,10.00
2016,04,02,08,57,10.00
2016,04,02,08,58,10.10
2016,04,02,08,59,10.10
2016,04,02,09,00,10.20
2016,04,02,09,01,10.20
2016,04,02,09,02,10.30
2016,04,02,09,03,10.30
2016,04,02,09,04,10.40
2016,04,02,09,05,10.40
2016,04,02,09,06,10.40
2016,04,02,09,07,10.40
2016,04,02,09,08,10.40
2016,04,02,09,09,10.40
2016,04,02,09,10,10.40
2016,04,02,09,11,10.50
2016,04,02,09,12,10.50
2016,04,02,09,13,10.50
2016,04,02,09,14,10.60
2016,04,02,09,15,10.60
2016,04,02,09,16,10.60
2016,04,02,09,17,10.60
2016,04,02,09,18,10.60
2016,04,02,09,19,10.60
2016,04,02,09,20,10.60
2016,04,02,09,21,10.60
2016,04,02,09,22,10.60
2016,04,02,09,23,10.60
2016,04,02,09,24,10.60
2016,04,02,09,25,10.60
2016,04,02,09,26,10.60
2016,04,02,09,27,10.60
2016,04,02,09,28,10.70
2016,04,02,09,29,10.60
2016,04,02,09,30,10.60
2016,04,02,09,31,10.60
2016,04,02,09,32,10.60
2016,04,02,09,33,10.60
2016,04,02,09,34,10.60
2016,04,02,09,35,10.60
2016,04,02,09,36,10.60
2016,04,02,09,37,10.50
2016,04,02,09,38,10.50
2016,04,02,09,39,10.60
2016,04,02,09,40,10.60
2016,04,02,09,41,10.60
2016,04,02,09,42,10.60
2016,04,02,09,43,10.70
2016,04,02,09,44,10.70
2016,04,02,09,45,10.70
2016,04,02,09,46,10.70
2016,04,02,09,47,10.70
2016,04,02,09,48,10.60
2016,04,02,09,49,10.60
2016,04,02,09,50,10.60
2016,04,02,09,51,10.60
2016,04,02,09,52,10.60
2016,04,02,09,53,10.60
2016,04,02,09,54,10.60
2016,04,02,09,55,10.60
2016,04,02,09,56,10.60
2016,04,02,09,57,10.60
2016,04,02,09,58,10.60
2016,04,02,09,59,10.70
2016,04,02,10,00,10.70
2016,04,02,10,01,10.80
2016,04,02,10,02,10.80
2016,04,02,10,03,10.90
2016,04,02,10,04,10.90
2016,04,02,10,05,10.90
2016,04,02,10,06,10.90
2016,04,02,10,07,11.00
2016,04,02,10,08,11.00
2016,04,02,10,09,11.10
2016,04,02,10,10,11.20
2016,04,02,10,11,11.20
2016,04,02,10,12,11.30
2016,04,02,10,13,11.30
2016,04,02,10,14,11.30
2016,04,02,10,15,11.30
2016,04,02,10,16,11.40
2016,04,02,10,17,11.40
2016,04,02,10,18,11.50
2016,04,02,10,19,11.50
2016,04,02,10,20,11.40
2016,04,02,10,21,11.30
2016,04,02,10,22,11.30
2016,04,02,10,23,11.30
2016,04,02,10,24,11.30
2016,04,02,10,25,11.30
2016,04,02,10,26,11.30
2016,04,02,10,27,11.30
2016,04,02,10,28,11.30
2016,04,02,10,29,11.30
2016,04,02,10,30,11.30
2016,04,02,10,31,11.30
2016,04,02,10,32,11.30
2016,04,02,10,33,11.30
2016,04,02,10,34,11.20
2016,04,02,10,35,11.20
2016,04,02,10,36,11.10
2016,04,02,10,37,11.00
2016,04,02,10,38,10.90
2016,04,02,10,39,10.90
2016,04,02,10,40,10.90
2016,04,02,10,41,10.90
2016,04,02,10,42,10.90
2016,04,02,10,43,10.80
2016,04,02,10,44,10.80
2016,04,02,10,45,10.90
2016,04,02,10,46,10.90
2016,04,02,10,47,10.90
2016,04,02,10,48,11.00
2016,04,02,10,49,11.10
2016,04,02,10,50,11.20
2016,04,02,10,51,11.30
2016,04,02,10,52,11.50
2016,04,02,10,53,11.50
2016,04,02,10,54,11.50
2016,04,02,10,55,11.50
2016,04,02,10,56,11.50
2016,04,02,10,57,11.50
2016,04,02,10,58,11.50
2016,04,02,10,59,11.40
2016,04,02,11,00,11.30
2016,04,02,11,01,11.30
2016,04,02,11,02,11.20
2016,04,02,11,03,11.20
2016,04,02,11,04,11.20
2016,04,02,11,05,11.30
2016,04,02,11,06,11.40
2016,04,02,11,07,11.50
2016,04,02,11,08,11.50
2016,04,02,11,09,11.60
2016,04,02,11,10,11.60
2016,04,02,11,11,11.60
2016,04,02,11,12,11.60
2016,04,02,11,13,11.50
2016,04,02,11,14,11.50
2016,04,02,11,15,11.50
2016,04,02,11,16,11.60
2016,04,02,11,17,11.60
2016,04,02,11,18,11.70
2016,04,02,11,19,11.80
2016,04,02,11,20,11.80
2016,04,02,11,21,11.90
2016,04,02,11,22,11.90
2016,04,02,11,23,11.90
2016,04,02,11,24,11.90
2016,04,02,11,25,11.80
2016,04,02,11,26,11.90
2016,04,02,11,27,12.00
2016,04,02,11,28,12.10
2016,04,02,11,29,12.20
2016,04,02,11,30,12.10
2016,04,02,11,31,12.10
2016,04,02,11,32,12.00
2016,04,02,11,33,12.00
2016,04,02,11,34,12.00
2016,04,02,11,35,12.10
2016,04,02,11,36,12.20
2016,04,02,11,37,12.30
2016,04,02,11,38,12.40
2016,04,02,11,39,12.40
2016,04,02,11,40,12.30
2016,04,02,11,41,12.20
2016,04,02,11,42,12.10
2016,04,02,11,43,12.10
2016,04,02,11,44,12.00
2016,04,02,11,45,12.00
2016,04,02,11,46,11.90
2016,04,02,11,47,12.00
2016,04,02,11,48,12.00
2016,04,02,11,49,12.10
2016,04,02,11,50,12.10
2016,04,02,11,51,12.20
2016,04,02,11,52,12.30
2016,04,02,11,53,12.30
2016,04,02,11,54,12.40
2016,04,02,11,55,12.50
2016,04,02,11,56,12.40
2016,04,02,11,57,12.30
2016,04,02,11,58,12.20
2016,04,02,11,59,12.10
2016,04,02,12,00,12.00
2016,04,02,12,01,12.00
2016,04,02,12,02,12.00
2016,04,02,12,03,12.00
2016,04,02,12,04,12.00
2016,04,02,12,05,12.00
2016,04,02,12,06,11.90
2016,04,02,12,07,11.90
2016,04,02,12,08,11.90
2016,04,02,12,09,11.90
2016,04,02,12,10,11.90
2016,04,02,12,11,11.80
2016,04,02,12,12,11.70
2016,04,02,12,13,11.60
2016,04,02,12,14,11.60
2016,04,02,12,15,11.60
2016,04,02,12,16,11.50
2016,04,02,12,17,11.60
2016,04,02,12,18,11.60
2016,04,02,12,19,11.70
2016,04,02,12,20,11.80
2016,04,02,12,21,11.80
2016,04,02,12,22,11.90
2016,04,02,12,23,11.90
2016,04,02,12,24,11.90
2016,04,02,12,25,11.80
2016,04,02,12,26,11.80
2016,04,02,12,27,11.80
2016,04,02,12,28,11.80
2016,04,02,12,29,11.90
2016,04,02,12,30,12.00
2016,04,02,12,31,12.10
2016,04,02,12,32,12.10
2016,04,02,12,33,12.20
2016,04,02,12,34,12.30
2016,04,02,12,35,12.30
2016,04,02,12,36,12.20
2016,04,02,12,37,12.10
2016,04,02,12,38,12.10
2016,04,02,12,39,12.10
2016,04,02,12,40,12.10
2016,04,02,12,41,12.20
2016,04,02,12,42,12.20
2016,04,02,12,43,12.30
2016,04,02,12,44,12.20
2016,04,02,12,45,12.20
2016,04,02,12,46,12.20
2016,04,02,12,47,12.20
2016,04,02,12,48,12.30
2016,04,02,12,49,12.30
2016,04,02,12,50,12.30
2016,04,02,12,51,12.30
2016,04,02,12,52,12.20
2016,04,02,12,53,12.30
2016,04,02,12,54,12.30
2016,04,02,12,55,12.30
2016,04,02,12,56,12.30
2016,04,02,12,57,12.30
2016,04,02,12,58,12.30
2016,04,02,12,59,12.30
2016,04,02,13,00,12.30
2016,04,02,13,01,12.40
2016,04,02,13,02,12.40
2016,04,02,13,03,12.40
2016,04,02,13,04,12.50
2016,04,02,13,05,12.60
2016,04,02,13,06,12.70
2016,04,02,13,07,12.80
2016,04,02,13,08,12.90
2016,04,02,13,09,13.00
2016,04,02,13,10,13.10
2016,04,02,13,11,13.10
2016,04,02,13,12,13.20
2016,04,02,13,13,13.20
2016,04,02,13,14,13.20
2016,04,02,13,15,13.30
2016,04,02,13,16,13.30
2016,04,02,13,17,13.30
2016,04,02,13,18,13.20
2016,04,02,13,19,13.00
2016,04,02,13,20,12.90
2016,04,02,13,21,12.80
2016,04,02,13,22,12.90
2016,04,02,13,23,12.90
2016,04,02,13,24,13.00
2016,04,02,13,25,13.00
2016,04,02,13,26,13.00
2016,04,02,13,27,12.90
2016,04,02,13,28,12.90
2016,04,02,13,29,13.00
2016,04,02,13,30,13.00
2016,04,02,13,31,13.00
2016,04,02,13,32,13.10
2016,04,02,13,33,13.20
2016,04,02,13,34,13.20
2016,04,02,13,35,13.30
2016,04,02,13,36,13.30
2016,04,02,13,37,13.20
2016,04,02,13,38,13.10
2016,04,02,13,39,13.10
2016,04,02,13,40,13.20
2016,04,02,13,41,13.20
2016,04,02,13,42,13.30
2016,04,02,13,43,13.30
2016,04,02,13,44,13.30
2016,04,02,13,45,13.30
2016,04,02,13,46,13.30
2016,04,02,13,47,13.20
2016,04,02,13,48,13.10
2016,04,02,13,49,13.00
2016,04,02,13,50,13.00
2016,04,02,13,51,12.90
2016,04,02,13,52,12.80
2016,04,02,13,53,12.70
2016,04,02,13,54,12.60
2016,04,02,13,55,12.60
2016,04,02,13,56,12.50
2016,04,02,13,57,12.40
2016,04,02,13,58,12.30
2016,04,02,13,59,12.30
2016,04,02,14,00,12.30
2016,04,02,14,01,12.30
2016,04,02,14,02,12.20
2016,04,02,14,03,12.30
2016,04,02,14,04,12.30
2016,04,02,14,05,12.30
2016,04,02,14,06,12.30
2016,04,02,14,07,12.30
2016,04,02,14,08,12.30
2016,04,02,14,09,12.30
2016,04,02,14,10,12.30
2016,04,02,14,11,12.30
2016,04,02,14,12,12.30
2016,04,02,14,13,12.30
2016,04,02,14,14,12.40
2016,04,02,14,15,12.30
2016,04,02,14,16,12.30
2016,04,02,14,17,12.20
2016,04,02,14,18,12.10
2016,04,02,14,19,12.10
2016,04,02,14,20,12.10
2016,04,02,14,21,12.10
2016,04,02,14,22,12.00
2016,04,02,14,23,12.00
2016,04,02,14,24,11.90
2016,04,02,14,25,11.90
2016,04,02,14,26,11.80
2016,04,02,14,27,11.80
2016,04,02,14,28,11.80
2016,04,02,14,29,11.80
2016,04,02,14,30,11.80
2016,04,02,14,31,11.80
2016,04,02,14,32,11.80
2016,04,02,14,33,11.80
2016,04,02,14,34,11.80
2016,04,02,14,35,11.90
2016,04,02,14,36,11.90
2016,04,02,14,37,12.00
2016,04,02,14,38,12.10
2016,04,02,14,39,12.10
2016,04,02,14,40,12.10
2016,04,02,14,41,12.00
2016,04,02,14,42,12.00
2016,04,02,14,43,12.00
2016,04,02,14,44,12.00
2016,04,02,14,45,12.00
2016,04,02,14,46,11.90
2016,04,02,14,47,11.90
2016,04,02,14,48,11.90
2016,04,02,14,49,11.90
2016,04,02,14,50,11.90
2016,04,02,14,51,11.90
2016,04,02,14,52,11.90
2016,04,02,14,53,11.90
2016,04,02,14,54,11.90
2016,04,02,14,55,11.90
2016,04,02,14,56,11.90
2016,04,02,14,57,11.90
2016,04,02,14,58,11.90
2016,04,02,14,59,12.00
2016,04,02,15,00,12.00
2016,04,02,15,01,12.10
2016,04,02,15,02,12.20
2016,04,02,15,03,12.20
2016,04,02,15,04,12.30
2016,04,02,15,05,12.40
2016,04,02,15,06,12.40
2016,04,02,15,07,12.40
2016,04,02,15,08,12.40
2016,04,02,15,09,12.30
2016,04,02,15,10,12.30
2016,04,02,15,11,12.40
2016,04,02,15,12,12.50
2016,04,02,15,13,12.50
2016,04,02,15,14,12.50
2016,04,02,15,15,12.50
2016,04,02,15,16,12.50
2016,04,02,15,17,12.50
2016,04,02,15,18,12.50
2016,04,02,15,19,12.50
2016,04,02,15,20,12.50
2016,04,02,15,21,12.40
2016,04,02,15,22,12.40
2016,04,02,15,23,12.30
2016,04,02,15,24,12.30
2016,04,02,15,25,12.30
2016,04,02,15,26,12.30
2016,04,02,15,27,12.30
2016,04,02,15,28,12.40
2016,04,02,15,29,12.40
2016,04,02,15,30,12.40
2016,04,02,15,31,12.50
2016,04,02,15,32,12.40
2016,04,02,15,33,12.50
2016,04,02,15,34,12.50
2016,04,02,15,35,12.40
2016,04,02,15,36,12.40
2016,04,02,15,37,12.50
2016,04,02,15,38,12.50
2016,04,02,15,39,12.60
2016,04,02,15,40,12.60
2016,04,02,15,41,12.60
2016,04,02,15,42,12.60
2016,04,02,15,43,12.60
2016,04,02,15,44,12.70
2016,04,02,15,45,12.70
2016,04,02,15,46,12.70
2016,04,02,15,47,12.70
2016,04,02,15,48,12.70
2016,04,02,15,49,12.80
2016,04,02,15,50,12.80
2016,04,02,15,51,12.70
2016,04,02,15,52,12.70
2016,04,02,15,53,12.70
2016,04,02,15,54,12.70
2016,04,02,15,55,12.70
2016,04,02,15,56,12.70
2016,04,02,15,57,12.70
2016,04,02,15,58,12.70
2016,04,02,15,59,12.70
2016,04,02,16,00,12.70
2016,04,02,16,01,12.70
2016,04,02,16,02,12.60
2016,04,02,16,03,12.60
2016,04,02,16,04,12.60
2016,04,02,16,05,12.50
2016,04,02,16,06,12.60
2016,04,02,16,07,12.60
2016,04,02,16,08,12.60
2016,04,02,16,09,12.60
2016,04,02,16,10,12.60
2016,04,02,16,11,12.60
2016,04,02,16,12,12.50
2016,04,02,16,13,12.50
2016,04,02,16,14,12.60
2016,04,02,16,15,12.60
2016,04,02,16,16,12.60
2016,04,02,16,17,12.50
2016,04,02,16,18,12.50
2016,04,02,16,19,12.40
2016,04,02,16,20,12.40
2016,04,02,16,21,12.40
2016,04,02,16,22,12.40
2016,04,02,16,23,12.30
2016,04,02,16,24,12.30
2016,04,02,16,25,12.40
2016,04,02,16,26,12.40
2016,04,02,16,27,12.30
2016,04,02,16,28,12.30
2016,04,02,16,29,12.30
2016,04,02,16,30,12.30
2016,04,02,16,31,12.30
2016,04,02,16,32,12.30
2016,04,02,16,33,12.20
2016,04,02,16,34,12.20
2016,04,02,16,35,12.20
2016,04,02,16,36,12.20
2016,04,02,16,37,12.20
2016,04,02,16,38,12.20
2016,04,02,16,39,12.20
2016,04,02,16,40,12.20
2016,04,02,16,41,12.20
2016,04,02,16,42,12.20
2016,04,02,16,43,12.20
2016,04,02,16,44,12.20
2016,04,02,16,45,12.20
2016,04,02,16,46,12.20
2016,04,02,16,47,12.20
2016,04,02,16,48,12.20
2016,04,02,16,49,12.20
2016,04,02,16,50,12.20
2016,04,02,16,51,12.30
2016,04,02,16,52,12.30
2016,04,02,16,53,12.30
2016,04,02,16,54,12.30
2016,04,02,16,55,12.40
2016,04,02,16,56,12.40
2016,04,02,16,57,12.50
2016,04,02,16,58,12.50
2016,04,02,16,59,12.40
2016,04,02,17,00,12.40
2016,04,02,17,01,12.40
2016,04,02,17,02,12.40
2016,04,02,17,03,12.30
2016,04,02,17,04,12.30
2016,04,02,17,05,12.30
2016,04,02,17,06,12.30
2016,04,02,17,07,12.30
2016,04,02,17,08,12.30
2016,04,02,17,09,12.30
2016,04,02,17,10,12.30
2016,04,02,17,11,12.30
2016,04,02,17,12,12.30
2016,04,02,17,13,12.30
2016,04,02,17,14,12.40
2016,04,02,17,15,12.40
2016,04,02,17,16,12.40
2016,04,02,17,17,12.50
2016,04,02,17,18,12.50
2016,04,02,17,19,12.60
2016,04,02,17,20,12.50
2016,04,02,17,21,12.50
2016,04,02,17,22,12.50
2016,04,02,17,23,12.50
2016,04,02,17,24,12.50
2016,04,02,17,25,12.50
2016,04,02,17,26,12.50
2016,04,02,17,27,12.50
2016,04,02,17,28,12.50
2016,04,02,17,29,12.50
2016,04,02,17,30,12.50
2016,04,02,17,31,12.50
2016,04,02,17,32,12.50
2016,04,02,17,33,12.50
2016,04,02,17,34,12.60
2016,04,02,17,35,12.60
2016,04,02,17,36,12.60
2016,04,02,17,37,12.60
2016,04,02,17,38,12.60
2016,04,02,17,39,12.60
2016,04,02,17,40,12.70
2016,04,02,17,41,12.70
2016,04,02,17,42,12.80
2016,04,02,17,43,12.80
2016,04,02,17,44,12.80
2016,04,02,17,45,12.90
2016,04,02,17,46,12.90
2016,04,02,17,47,13.00
2016,04,02,17,48,13.00